LiveATC.Net - Listen to live air traffic control over the Internet!


ICAO: SBRP  IATA: RAO   Airport: Leite Lopes Airport
City: Ribeirao Preto
Country: Brazil   Continent: South America
SBRP METAR Weather: SBRP 260400Z 00000KT CAVOK 21/18 Q1012
SBRP Flight Activity (FlightAware)

SBRP Tower/Center
Feed Status: DOWN
Last heard on: 2020-01-24 18:32:07 (1 days 9 hours 31 minutes ago)
Archive Access: SBRP Tower/Center
FacilityFrequency
Leite Lopes Tower118.000
Pirassununga Center (North)119.550

NOTICE

Unauthorized use prohibited. See LiveATC.net Terms of Service


Airport/ARTCC Code
Frequency Search
(e.g., 124.400, 128.75)
Site-wide search
 


Browse Feeds
Top 50 Feeds
Coverage Map
Bad Weather Areas

LiveATC FAQ
Offer LiveATC feed
Contact LiveATC.net
Press Inquiries

LiveATC on iPhone
LiveATC on Android

Windows Phone
Windows 8/10

LiveATC Mobile
(Mobile browser)

ATC Audio Archives
Interesting Recordings

LiveATC Forums


Home Page
About LiveATC.net
Make a Donation
Terms of Use
Privacy Policy

Canadian Air Freqs

AIRMETs/SIGMETs

FAA Airport Status
Nat'l Airspace Status
Arrival Demand Charts


Server Software By:
Icecast.org
Liquidsoap